Weather History for PATO - October, 2012

Change the Weather History Date:

Thursday, October 25, 2012

  Actual Average Record
Temperature  
Mean Temperature 16 °F -  
Max Temperature 26 °F - - ()
Min Temperature 6 °F - - ()
Degree Days  
Heating Degree Days 49    
Moisture  
Dew Point 10 °F    
Average Humidity 91    
Maximum Humidity 96    
Minimum Humidity 78    
Precipitation  
Precipitation 0.00 in - - ()
Sea Level Pressure  
Sea Level Pressure 30.49 in    
Wind  
Wind Speed 1 mph (SW)    
Max Wind Speed 7 mph    
Max Gust Speed -    
Visibility 10 miles    
Events      
T = Trace of Precipitation, MM = Missing Value Source: NWS Daily Summary

Daily Weather History Graph

Daily Weather History Graph

Search for Another Location

Airport or City:

Trip Planner

Search our weather history database for the weather conditions in past years. The results will help you decide how hot, cold, wet, or windy it might be!

Date:

Astronomy

Oct. 25, 2012 Rise Set
Actual Time 9:04 AM AKDT 6:13 PM AKDT
Civil Twilight 8:19 AM AKDT 6:58 PM AKDT
Nautical Twilight 7:29 AM AKDT 7:48 PM AKDT
Astronomical Twilight 6:40 AM AKDT 8:37 PM AKDT
Moon 4:50 PM AKDT (10/25) 4:16 AM AKDT (10/25)
Length of Visible Light 10h 38m
Length of Day
9h 08m
Waxing Gibbous, 85% of the Moon is Illuminated
Oct 25
Waxing Gibbous
Oct 29
Full
Nov 6
Last Quarter
Nov 13
New
Nov 20
First Quarter

Hourly Weather History & Observations

Time (AKDT) Temp. Windchill Dew Point Humidity Pressure Visibility Wind Dir Wind Speed Gust Speed Precip Events Conditions
12:53 AM 10.9 °F - 9.0 °F 92% 30.46 in 10.0 mi Calm Calm - N/A   Clear
1:53 AM 9.0 °F - 8.1 °F 96% 30.47 in 10.0 mi Calm Calm - N/A   Clear
2:53 AM 12.0 °F 4.1 °F 7.0 °F 80% 30.48 in 10.0 mi ESE 4.6 mph - N/A   Clear
3:53 AM 9.0 °F - 7.0 °F 92% 30.49 in 10.0 mi Calm Calm - N/A   Clear
4:53 AM 10.0 °F - 8.1 °F 92% 30.48 in 10.0 mi Calm Calm - N/A   Clear
5:53 AM 10.0 °F 1.8 °F 8.1 °F 92% 30.48 in 10.0 mi East 4.6 mph - N/A   Clear
6:53 AM 7.0 °F - 5.0 °F 92% 30.49 in 10.0 mi Calm Calm - N/A   Clear
7:53 AM 7.0 °F - 5.0 °F 92% 30.49 in 10.0 mi Calm Calm - N/A   Clear
8:53 AM 7.0 °F - 5.0 °F 92% 30.51 in 10.0 mi Calm Calm - N/A   Clear
9:53 AM 6.1 °F - 3.0 °F 87% 30.51 in 10.0 mi Calm Calm - N/A   Clear
10:53 AM 14.0 °F 6.5 °F 12.9 °F 95% 30.51 in 10.0 mi West 4.6 mph - N/A   Clear
11:53 AM 17.1 °F - 15.1 °F 92% 30.51 in 10.0 mi Calm Calm - N/A   Clear
12:53 PM 21.0 °F - 18.0 °F 88% 30.52 in 10.0 mi Calm Calm - N/A   Clear
1:53 PM 26.1 °F - 19.9 °F 78% 30.51 in 10.0 mi Calm Calm - N/A   Clear
2:53 PM 19.9 °F 11.1 °F 16.0 °F 85% 30.51 in 10.0 mi West 6.9 mph - N/A   Clear
3:53 PM 18.0 °F - 17.1 °F 96% 30.50 in 10.0 mi Calm Calm - N/A   Clear
4:53 PM 16.0 °F 8.8 °F 15.1 °F 96% 30.49 in 10.0 mi WSW 4.6 mph - N/A   Clear
5:53 PM 15.1 °F - 14.0 °F 95% 30.48 in 10.0 mi Calm Calm - N/A   Clear
6:53 PM 12.9 °F - 12.0 °F 96% 30.48 in 10.0 mi Calm Calm - N/A   Clear
7:53 PM 10.9 °F - 10.0 °F 96% 30.48 in 10.0 mi Calm Calm - N/A   Clear
8:53 PM 10.9 °F - 8.1 °F 88% 30.48 in 10.0 mi Calm Calm - N/A   Clear
9:53 PM 10.0 °F - 8.1 °F 92% 30.48 in 10.0 mi Calm Calm - N/A   Clear
10:53 PM 9.0 °F - 7.0 °F 92% 30.48 in 10.0 mi Calm Calm - N/A   Clear
11:53 PM 8.1 °F - 6.1 °F 92% 30.48 in 10.0 mi Calm Calm - N/A   Clear